Regional Weather Roundup
Issued by NWS

Home | Current Version | Previous Version | Graphics & Text | Print | Product List | Glossary On
Versions: 1 2 3 4 5 6 7 8 9 10 11 12 13 14 15 16 17 18 19 20 21 22 23 24 25 26 27 28 29 30 31 32 33 34 35 36 37 38 39 40 41 42 43 44 45 46 47 48 49 50
729
ASUS43 KLSX 251407
RWRMO

WEATHER SUMMARY FOR MISSOURI
NATIONAL WEATHER SERVICE SPRINGFIELD MO
900 AM CDT WED MAY 25 2016

NOTE: "FAIR" INDICATES FEW OR NO CLOUDS BELOW 12,000 FEET WITH NO
       SIGNIFICANT WEATHER AND/OR OBSTRUCTIONS TO VISIBILITY.
       CURRENT SKY AND/OR WEATHER CONDITIONS ARE NOT AVAILABLE FOR
       CHILLICOTHE AND FARMINGTON.

MOZ001>031-035>038-043-044-053-054-251500-
...NORTHERN AND WESTERN MISSOURI...

CITY           SKY/WX    TMP DP  RH WIND       PRES   REMARKS
KANSAS CTY INT LGT RAIN  66  60  81 N16       29.92R
KANSAS C DTWN  CLOUDY    70  60  70 N9        29.89R
LEE`S SUMMIT   CLOUDY    67  60  78 E7        29.88R
ST JOSEPH      LGT RAIN  69  59  70 N8        29.95R
CHILLICOTHE      N/A     71  64  78 N5        29.95R
KIRKSVILLE     CLOUDY    67  64  90 SE16      29.93R

$$
MOZ066>068-077>081-088>096-101>105-251500-
...SOUTHWEST MISSOURI...

CITY           SKY/WX    TMP DP  RH WIND       PRES   REMARKS
SPRINGFIELD    LGT RAIN  65  60  84 SW12      30.05R
JOPLIN         TSTM      64  60  87 SE21G29   29.95F
BRANSON        CLOUDY    64  64 100 NW6       30.07R

$$
MOZ032>034-039>042-045>050-055>058-069>072-251500-
...CENTRAL MISSOURI...

CITY           SKY/WX    TMP DP  RH WIND       PRES   REMARKS
COLUMBIA       CLOUDY    66  65  96 SE7       29.95F
JEFFERSON CITY CLOUDY    67  64  90 E9        29.94F
ROLLA          CLOUDY    67  64  90 S9        29.97F
SEDALIA        CLOUDY    70  64  81 E7        29.90R
WARRENSBURG    CLOUDY    66  61  82 E3        29.88R

$$
MOZ051-052-059>065-251500-
...EAST CENTRAL MISSOURI...

CITY           SKY/WX    TMP DP  RH WIND       PRES   REMARKS
ST LOUIS INTL  LGT RAIN  71  62  73 SW9       30.01S
SPIRIT OF STL  LGT RAIN  67  64  90 SW5       30.00F
ST CHARLES     PTSUNNY   70  63  78 SW10      30.00S

$$
MOZ072>076-082>087-097>100-106>115-251500-
...SOUTH CENTRAL AND SOUTHEAST MISSOURI...

CITY           SKY/WX    TMP DP  RH WIND       PRES   REMARKS
CAPE GIRARDEAU CLOUDY    67  65  93 S8        30.06F
FARMINGTON     PTSUNNY   66  63  90 S6        30.06R
POPLAR BLUFF   CLOUDY    67  64  90 S8        30.06S
WEST PLAINS    PTSUNNY   65  62  90 S8        30.07R

$$



USA.gov is the U.S. government's official web portal to all federal, state and local government web resources and services.